QPF
0.00 0.00 0.00 0.00 0.00 0.00 0.00 0.00 0.00 0.00 0.00 0.00 0.00 0.00 0.00 0.00 0.00 0.00 0.00 0.00 0.00 0.00 0.00 0.00 0.00 0.00 0.00 0.00 0.00 0.00 0.00 0.00 0.00 0.00 0.00 0.00 0.00 0.00 0.00 0.00 0.00 0.00 0.00 0.00 0.00 0.00 0.00 0.00 0.00
0.00 0.00 0.00 0.00 0.00 0.00 0.00 0.00 0.00 0.00 0.00 0.00 0.00 0.00 0.00 0.00 0.00 0.00 0.00 0.00 0.00 0.00 0.00 0.00 0.00 0.00 0.00 0.00 0.00 0.00 0.00 0.00 0.00 0.00 0.00 0.00 0.00 0.00 0.00 0.00 0.00 0.00 0.00 0.00 0.00 0.00 0.00 0.00 0.00
0.00 0.00 0.00 0.00 0.00 0.00 0.00 0.00 0.00 0.00 0.00 0.00 0.00 0.00 0.00 0.00 0.00 0.00 0.00 0.00 0.00 0.00 0.00 0.00 0.00 0.00 0.00 0.00 0.00 0.00 0.00 0.00 0.00 0.00 0.00 0.00 0.00 0.00 0.00 0.00 0.00 0.00 0.00 0.00 0.00 0.00 0.00 0.00 0.00
0.00 0.00 0.00 0.00 0.00 0.00 0.00 0.00 0.00 0.00 0.00 0.00 0.00 0.00 0.00 0.00 0.00 0.00 0.00 0.00 0.00 0.00 0.00 0.00 0.00 0.00 0.00 0.00 0.00 0.00 0.00 0.00 0.00 0.00 0.00 0.00 0.00 0.00 0.00 0.00 0.00 0.00 0.00 0.00 0.00 0.00 0.00 0.00 0.00
0.00 0.00 0.00 0.00 0.00 0.00 0.00 0.00 0.00 0.00 0.00 0.00 0.00 0.00 0.00 0.00 0.00 0.00 0.00 0.00 0.00 0.00 0.00 0.00 0.00 0.00 0.00 0.00 0.00 0.00 0.00 0.00 0.00 0.00 0.00 0.00 0.00 0.00 0.00 0.00 0.00 0.00 0.00 0.00 0.00 0.00 0.00 0.00 0.00
0.00 0.00 0.00 0.00 0.00 0.00 0.00 0.00 0.00 0.00 0.00 0.00 0.00 0.00 0.00 0.00 0.00 0.00 0.00 0.00 0.00 0.00 0.00 0.00 0.00 0.00 0.00 0.00 0.00 0.00 0.00 0.00 0.00 0.00 0.00 0.00 0.00 0.00 0.00 0.00 0.00 0.00 0.00 0.00 0.00 0.00 0.00 0.00 0.00
0.00 0.00 0.00 0.00 0.00 0.00 0.00 0.00 0.00 0.00 0.00 0.00 0.00 0.00 0.00 0.00 0.00 0.00 0.00 0.00 0.00 0.00 0.00 0.00 0.00 0.00 0.00 0.00 0.00 0.00 0.00 0.00 0.00 0.00 0.00 0.00 0.00 0.00 0.00 0.00 0.00 0.00 0.00 0.00 0.00 0.00 0.00 0.00 0.00
0.00 0.00 0.00 0.00 0.00 0.00 0.00 0.00 0.00 0.00 0.00 0.00 0.00 0.00 0.00 0.00 0.00 0.00 0.00 0.00 0.00 0.00 0.00 0.00 0.00 0.00 0.00 0.00 0.00 0.00 0.00 0.00 0.00 0.00 0.00 0.00 0.00 0.00 0.00 0.00 0.00 0.00 0.00 0.00 0.00 0.00 0.00 0.00 0.00
0.00 0.00 0.00 0.00 0.00 0.00 0.00 0.00 0.00 0.00 0.00 0.00 0.00 0.00 0.00 0.00 0.00 0.00 0.00 0.00 0.00 0.00 0.00 0.00 0.00 0.00 0.00 0.00 0.00 0.00 0.00 0.00 0.00 0.00 0.00 0.00 0.00 0.00 0.00 0.00 0.00 0.00 0.00 0.00 0.00 0.00 0.00 0.00 0.00
0.00 0.00 0.00 0.00 0.00 0.00 0.00 0.00 0.00 0.00 0.00 0.00 0.00 0.00 0.00 0.00 0.00 0.00 0.00 0.00 0.00 0.00 0.00 0.00 0.00 0.00 0.00 0.00 0.00 0.00 0.00 0.00 0.00 0.00 0.00 0.00 0.00 0.00 0.00 0.00 0.00 0.00 0.00 0.00 0.00 0.00 0.00 0.00 0.00
0.00 0.00 0.00 0.00 0.00 0.00 0.00 0.00 0.00 0.00 0.00 0.00 0.00 0.00 0.00 0.00 0.00 0.00 0.00 0.00 0.00 0.00 0.00 0.00 0.00 0.00 0.00 0.00 0.00 0.00 0.00 0.00 0.00 0.00 0.00 0.00 0.00 0.00 0.00 0.00 0.00 0.00 0.00 0.00 0.00 0.00 0.00 0.00 0.00
0.00 0.00 0.00 0.00 0.00 0.00 0.00 0.00 0.00 0.00 0.00 0.00 0.00 0.00 0.00 0.00 0.00 0.00 0.00 0.00 0.00 0.00 0.00 0.00 0.00 0.00 0.00 0.00 0.00 0.00 0.00 0.00 0.00 0.00 0.00 0.00 0.00 0.00 0.00 0.00 0.00 0.00 0.00 0.00 0.00 0.00 0.00 0.00 0.00
0.00 0.00 0.00 0.00 0.00 0.00 0.00 0.00 0.00 0.00 0.00 0.00 0.00 0.00 0.00 0.00 0.00 0.00 0.00 0.00 0.00 0.00 0.00 0.00 0.00 0.00 0.00 0.00 0.00 0.00 0.00 0.00 0.00 0.00 0.00 0.00 0.00 0.00 0.00 0.00 0.00 0.00 0.00 0.00 0.00 0.00 0.00 0.00 0.00
0.00 0.00 0.00 0.00 0.00 0.00 0.00 0.00 0.00 0.00 0.00 0.00 0.00 0.00 0.00 0.00 0.00 0.00 0.00 0.00 0.00 0.00 0.00 0.00 0.00 0.00 0.00 0.00 0.00 0.00 0.00 0.00 0.00 0.00 0.00 0.00 0.00 0.00 0.00 0.00 0.00 0.00 0.00 0.00 0.00 0.00 0.00 0.00 0.00
0.00 0.00 0.00 0.00 0.00 0.00 0.00 0.00 0.00 0.00 0.00 0.00 0.00 0.00 0.00 0.00 0.00 0.00 0.00 0.00 0.00 0.00 0.00 0.00 0.00 0.00 0.00 0.00 0.00 0.00 0.00 0.00 0.00 0.00 0.00 0.00 0.00 0.00 0.00 0.00 0.00 0.00 0.00 0.00 0.00 0.00 0.00 0.00 0.00
0.00 0.00 0.00 0.00 0.00 0.00 0.00 0.00 0.00 0.00 0.00 0.00 0.00 0.00 0.00 0.00 0.00 0.00 0.00 0.00 0.00 0.00 0.00 0.00 0.00 0.00 0.00 0.00 0.00 0.00 0.00 0.00 0.00 0.00 0.00 0.00 0.00 0.00 0.00 0.00 0.00 0.00 0.00 0.00 0.00 0.00 0.00 0.00 0.00
0.00 0.00 0.00 0.00 0.00 0.00 0.00 0.00 0.00 0.00 0.00 0.00 0.00 0.00 0.00 0.00 0.00 0.00 0.00 0.00 0.00 0.00 0.00 0.00 0.00 0.00 0.00 0.00 0.00 0.00 0.00 0.00 0.00 0.00 0.00 0.00 0.00 0.00 0.00 0.00 0.00 0.00 0.00 0.00 0.00 0.00 0.00 0.00 0.00
0.00 0.00 0.00 0.00 0.00 0.00 0.00 0.00 0.00 0.00 0.00 0.00 0.00 0.00 0.00 0.00 0.00 0.00 0.00 0.00 0.00 0.00 0.00 0.00 0.00 0.00 0.00 0.00 0.00 0.00 0.00 0.00 0.00 0.00 0.00 0.00 0.00 0.00 0.00 0.00 0.00 0.00 0.00 0.00 0.00 0.00 0.00 0.00 0.00
0.00 0.00 0.00 0.00 0.00 0.00 0.00 0.00 0.00 0.00 0.00 0.00 0.00 0.00 0.00 0.00 0.00 0.00 0.00 0.00 0.00 0.00 0.00 0.00 0.00 0.00 0.00 0.00 0.00 0.00 0.00 0.00 0.00 0.00 0.00 0.00 0.00 0.00 0.00 0.00 0.00 0.00 0.00 0.00 0.00 0.00 0.00 0.00 0.00
0.00 0.00 0.00 0.00 0.00 0.00 0.00 0.00 0.00 0.00 0.00 0.00 0.00 0.00 0.00 0.00 0.00 0.00 0.00 0.00 0.00 0.00 0.00 0.00 0.00 0.00 0.00 0.00 0.00 0.00 0.00 0.00 0.00 0.00 0.00 0.00 0.00 0.00 0.00 0.00 0.00 0.00 0.00 0.00 0.00 0.00 0.00 0.00 0.00
0.00 0.00 0.00 0.00 0.00 0.00 0.00 0.00 0.00 0.00 0.00 0.00 0.00 0.00 0.00 0.00 0.00 0.00 0.00 0.00 0.00 0.00 0.00 0.00 0.00 0.00 0.00 0.00 0.00 0.00 0.00 0.00 0.00 0.00 0.00 0.00 0.00 0.00 0.00 0.00 0.00 0.00 0.00 0.00 0.00 0.00 0.00 0.00 0.00
0.00 0.00 0.00 0.00 0.00 0.00 0.00 0.00 0.00 0.00 0.00 0.00 0.00 0.00 0.00 0.00 0.00 0.00 0.00 0.00 0.00 0.00 0.00 0.00 0.00 0.00 0.00 0.00 0.00 0.00 0.00 0.00 0.00 0.00 0.00 0.00 0.00 0.00 0.00 0.00 0.00 0.00 0.00 0.00 0.00 0.00 0.00 0.00 0.00
0.00 0.00 0.00 0.00 0.00 0.00 0.00 0.00 0.00 0.00 0.00 0.00 0.00 0.00 0.00 0.00 0.00 0.00 0.00 0.00 0.00 0.00 0.00 0.00 0.00 0.00 0.00 0.00 0.00 0.00 0.00 0.00 0.00 0.00 0.00 0.00 0.00 0.00 0.00 0.00 0.00 0.00 0.00 0.00 0.00 0.00 0.00 0.00 0.00
0.00 0.00 0.00 0.00 0.00 0.00 0.00 0.00 0.00 0.00 0.00 0.00 0.00 0.00 0.00 0.00 0.00 0.00 0.00 0.00 0.00 0.00 0.00 0.00 0.00 0.00 0.00 0.00 0.00 0.00 0.00 0.00 0.00 0.00 0.00 0.00 0.00 0.00 0.00 0.00 0.00 0.00 0.00 0.00 0.00 0.00 0.00 0.00 0.00
0.00 0.00 0.00 0.00 0.00 0.00 0.00 0.00 0.00 0.00 0.00 0.00 0.00 0.00 0.00 0.00 0.00 0.00 0.00 0.00 0.00 0.00 0.00 0.00 0.00 0.00 0.00 0.00 0.00 0.00 0.00 0.00 0.00 0.00 0.00 0.00 0.00 0.00 0.00 0.00 0.00 0.00 0.00 0.00 0.00 0.00 0.00 0.00 0.00
0.00 0.00 0.00 0.00 0.00 0.00 0.00 0.00 0.00 0.00 0.00 0.00 0.00 0.00 0.00 0.00 0.00 0.00 0.00 0.00 0.00 0.00 0.00 0.00 0.00 0.00 0.00 0.00 0.00 0.00 0.00 0.00 0.00 0.00 0.00 0.00 0.00 0.00 0.00 0.00 0.00 0.00 0.00 0.00 0.00 0.00 0.00 0.00 0.00
0.00 0.00 0.00 0.00 0.00 0.00 0.00 0.00 0.00 0.00 0.00 0.00 0.00 0.00 0.00 0.00 0.00 0.00 0.00 0.00 0.00 0.00 0.00 0.00 0.00 0.00 0.00 0.00 0.00 0.00 0.00 0.00 0.00 0.00 0.00 0.00 0.00 0.00 0.00 0.00 0.00 0.00 0.00 0.00 0.00 0.00 0.00 0.00 0.00
0.00 0.00 0.00 0.00 0.00 0.00 0.00 0.00 0.00 0.00 0.00 0.00 0.00 0.00 0.00 0.00 0.00 0.00 0.00 0.00 0.00 0.00 0.00 0.00 0.00 0.00 0.00 0.00 0.00 0.00 0.00 0.00 0.00 0.00 0.00 0.00 0.00 0.00 0.00 0.00 0.00 0.00 0.00 0.00 0.00 0.00 0.00 0.00 0.00
0.00 0.00 0.00 0.00 0.00 0.00 0.00 0.00 0.00 0.00 0.00 0.00 0.00 0.00 0.00 0.00 0.00 0.00 0.00 0.00 0.00 0.00 0.00 0.00 0.00 0.00 0.00 0.00 0.00 0.00 0.00 0.00 0.00 0.00 0.00 0.00 0.00 0.00 0.00 0.00 0.00 0.00 0.00 0.00 0.00 0.00 0.00 0.00 0.00
0.00 0.00 0.00 0.00 0.00 0.00 0.00 0.00 0.00 0.00 0.00 0.00 0.00 0.00 0.00 0.00 0.00 0.00 0.00 0.00 0.00 0.00 0.00 0.00 0.00 0.00 0.00 0.00 0.00 0.00 0.00 0.00 0.00 0.00 0.00 0.00 0.00 0.00 0.00 0.00 0.00 0.00 0.00 0.00 0.00 0.00 0.00 0.00 0.00
MSLP
1015.19 1016.03 1017.09 1018.21 1019.24 1020.05 1020.53 1020.68 1020.51 1020.12 1019.65 1019.20 1018.89 1018.74 1018.78 1018.94 1019.16 1019.39 1019.56 1019.66 1019.72 1019.77 1019.86 1020.04 1020.32 1020.69 1021.12 1021.57 1021.99 1022.35 1022.65 1022.88 1023.08 1023.28 1023.51 1023.76 1024.05 1024.33 1024.60 1024.81 1024.95 1025.02 1025.03 1025.00 1024.95 1024.91 1024.90 1024.91 1024.94
1015.57 1016.60 1017.77 1018.91 1019.88 1020.54 1020.81 1020.71 1020.28 1019.66 1018.99 1018.41 1018.01 1017.83 1017.87 1018.06 1018.34 1018.63 1018.87 1019.05 1019.19 1019.32 1019.48 1019.72 1020.06 1020.47 1020.93 1021.41 1021.85 1022.24 1022.57 1022.84 1023.09 1023.35 1023.62 1023.92 1024.25 1024.56 1024.84 1025.06 1025.20 1025.26 1025.27 1025.23 1025.19 1025.15 1025.15 1025.17 1025.23
1016.09 1017.23 1018.43 1019.53 1020.37 1020.83 1020.87 1020.52 1019.88 1019.08 1018.29 1017.64 1017.22 1017.06 1017.13 1017.39 1017.73 1018.07 1018.38 1018.62 1018.82 1019.01 1019.24 1019.53 1019.91 1020.36 1020.84 1021.33 1021.78 1022.18 1022.51 1022.81 1023.08 1023.36 1023.65 1023.98 1024.31 1024.63 1024.91 1025.12 1025.26 1025.33 1025.35 1025.33 1025.30 1025.29 1025.31 1025.37 1025.46
1016.71 1017.89 1019.06 1020.03 1020.68 1020.92 1020.73 1020.17 1019.37 1018.46 1017.63 1016.98 1016.61 1016.51 1016.66 1016.97 1017.37 1017.76 1018.10 1018.38 1018.62 1018.85 1019.13 1019.46 1019.87 1020.34 1020.83 1021.31 1021.76 1022.14 1022.47 1022.76 1023.02 1023.30 1023.60 1023.92 1024.24 1024.55 1024.83 1025.04 1025.19 1025.28 1025.32 1025.33 1025.35 1025.38 1025.45 1025.54 1025.66
1017.39 1018.54 1019.59 1020.39 1020.83 1020.84 1020.45 1019.73 1018.83 1017.90 1017.10 1016.53 1016.25 1016.24 1016.47 1016.83 1017.26 1017.66 1018.01 1018.30 1018.56 1018.81 1019.11 1019.47 1019.89 1020.37 1020.86 1021.32 1021.74 1022.10 1022.41 1022.67 1022.93 1023.19 1023.48 1023.78 1024.10 1024.40 1024.67 1024.88 1025.05 1025.17 1025.25 1025.32 1025.39 1025.47 1025.58 1025.72 1025.87
1018.05 1019.11 1019.99 1020.59 1020.80 1020.60 1020.05 1019.25 1018.33 1017.45 1016.75 1016.30 1016.14 1016.24 1016.53 1016.93 1017.35 1017.74 1018.06 1018.33 1018.57 1018.83 1019.13 1019.50 1019.93 1020.40 1020.87 1021.32 1021.70 1022.03 1022.31 1022.56 1022.80 1023.05 1023.33 1023.64 1023.95 1024.25 1024.52 1024.74 1024.93 1025.08 1025.21 1025.33 1025.46 1025.60 1025.75 1025.92 1026.09
1018.60 1019.52 1020.21 1020.58 1020.59 1020.23 1019.58 1018.75 1017.88 1017.12 1016.56 1016.26 1016.23 1016.42 1016.76 1017.16 1017.56 1017.89 1018.16 1018.38 1018.59 1018.84 1019.13 1019.51 1019.93 1020.39 1020.85 1021.26 1021.62 1021.92 1022.18 1022.42 1022.66 1022.93 1023.22 1023.54 1023.86 1024.17 1024.45 1024.69 1024.90 1025.08 1025.25 1025.42 1025.59 1025.77 1025.96 1026.14 1026.32
1018.98 1019.72 1020.21 1020.38 1020.22 1019.75 1019.05 1018.26 1017.49 1016.87 1016.47 1016.33 1016.41 1016.67 1017.02 1017.40 1017.73 1018.00 1018.20 1018.37 1018.55 1018.78 1019.07 1019.45 1019.87 1020.32 1020.75 1021.15 1021.48 1021.77 1022.02 1022.27 1022.54 1022.84 1023.17 1023.52 1023.87 1024.20 1024.50 1024.75 1024.97 1025.17 1025.36 1025.55 1025.74 1025.95 1026.15 1026.34 1026.51
1019.14 1019.71 1020.01 1020.01 1019.71 1019.17 1018.49 1017.77 1017.12 1016.66 1016.41 1016.39 1016.55 1016.84 1017.18 1017.50 1017.76 1017.95 1018.09 1018.22 1018.38 1018.61 1018.91 1019.29 1019.73 1020.17 1020.59 1020.97 1021.29 1021.57 1021.84 1022.12 1022.43 1022.78 1023.17 1023.57 1023.96 1024.32 1024.63 1024.89 1025.10 1025.30 1025.48 1025.67 1025.87 1026.07 1026.27 1026.46 1026.61
1019.12 1019.52 1019.65 1019.51 1019.12 1018.56 1017.91 1017.28 1016.76 1016.42 1016.29 1016.35 1016.55 1016.83 1017.12 1017.37 1017.55 1017.68 1017.77 1017.88 1018.05 1018.29 1018.63 1019.04 1019.49 1019.94 1020.35 1020.72 1021.04 1021.33 1021.63 1021.95 1022.31 1022.73 1023.17 1023.63 1024.06 1024.45 1024.77 1025.02 1025.22 1025.39 1025.55 1025.72 1025.90 1026.09 1026.28 1026.46 1026.60
1018.97 1019.22 1019.22 1018.97 1018.53 1017.96 1017.36 1016.81 1016.39 1016.14 1016.08 1016.16 1016.34 1016.57 1016.78 1016.94 1017.05 1017.13 1017.21 1017.33 1017.53 1017.83 1018.22 1018.67 1019.16 1019.62 1020.05 1020.42 1020.75 1021.05 1021.37 1021.73 1022.15 1022.62 1023.12 1023.63 1024.10 1024.50 1024.82 1025.06 1025.24 1025.38 1025.50 1025.64 1025.80 1025.97 1026.15 1026.31 1026.45
1018.81 1018.93 1018.81 1018.49 1018.01 1017.46 1016.89 1016.40 1016.04 1015.82 1015.75 1015.80 1015.91 1016.04 1016.16 1016.23 1016.28 1016.33 1016.42 1016.58 1016.85 1017.22 1017.68 1018.20 1018.73 1019.23 1019.67 1020.05 1020.39 1020.71 1021.05 1021.45 1021.90 1022.41 1022.96 1023.49 1023.99 1024.40 1024.73 1024.95 1025.10 1025.21 1025.31 1025.42 1025.55 1025.71 1025.88 1026.04 1026.17
1018.73 1018.73 1018.53 1018.15 1017.66 1017.11 1016.57 1016.10 1015.74 1015.50 1015.37 1015.32 1015.32 1015.33 1015.33 1015.32 1015.32 1015.36 1015.47 1015.69 1016.04 1016.49 1017.04 1017.63 1018.21 1018.75 1019.22 1019.62 1019.98 1020.31 1020.67 1021.08 1021.55 1022.08 1022.64 1023.19 1023.69 1024.10 1024.42 1024.64 1024.79 1024.89 1024.98 1025.08 1025.21 1025.36 1025.53 1025.69 1025.82
1018.79 1018.71 1018.44 1018.03 1017.52 1016.98 1016.44 1015.96 1015.56 1015.25 1015.01 1014.83 1014.68 1014.55 1014.43 1014.34 1014.29 1014.32 1014.46 1014.74 1015.15 1015.69 1016.30 1016.96 1017.60 1018.18 1018.69 1019.13 1019.50 1019.85 1020.21 1020.62 1021.09 1021.61 1022.15 1022.69 1023.18 1023.60 1023.93 1024.15 1024.31 1024.43 1024.54 1024.66 1024.80 1024.97 1025.15 1025.32 1025.45
1019.00 1018.85 1018.54 1018.12 1017.61 1017.06 1016.52 1016.01 1015.54 1015.12 1014.75 1014.41 1014.11 1013.84 1013.61 1013.43 1013.33 1013.35 1013.51 1013.82 1014.28 1014.86 1015.53 1016.23 1016.92 1017.55 1018.10 1018.57 1018.97 1019.34 1019.71 1020.11 1020.55 1021.04 1021.55 1022.05 1022.53 1022.93 1023.27 1023.53 1023.73 1023.89 1024.05 1024.21 1024.40 1024.59 1024.79 1024.97 1025.10
1019.30 1019.11 1018.79 1018.37 1017.87 1017.33 1016.78 1016.22 1015.68 1015.15 1014.64 1014.16 1013.72 1013.32 1012.98 1012.72 1012.58 1012.58 1012.73 1013.04 1013.50 1014.09 1014.77 1015.49 1016.20 1016.87 1017.46 1017.97 1018.42 1018.81 1019.19 1019.57 1019.98 1020.41 1020.87 1021.32 1021.77 1022.17 1022.52 1022.82 1023.08 1023.32 1023.54 1023.77 1024.01 1024.24 1024.46 1024.64 1024.77
1019.60 1019.40 1019.09 1018.69 1018.24 1017.73 1017.17 1016.58 1015.97 1015.34 1014.72 1014.11 1013.55 1013.04 1012.62 1012.31 1012.12 1012.08 1012.19 1012.46 1012.88 1013.43 1014.07 1014.77 1015.49 1016.17 1016.81 1017.37 1017.86 1018.29 1018.67 1019.04 1019.40 1019.77 1020.16 1020.56 1020.96 1021.35 1021.72 1022.07 1022.40 1022.71 1023.02 1023.32 1023.61 1023.88 1024.12 1024.31 1024.42
1019.79 1019.61 1019.35 1019.02 1018.62 1018.16 1017.62 1017.01 1016.35 1015.65 1014.94 1014.25 1013.60 1013.03 1012.56 1012.21 1011.98 1011.89 1011.95 1012.14 1012.48 1012.94 1013.50 1014.14 1014.83 1015.52 1016.18 1016.78 1017.32 1017.78 1018.18 1018.53 1018.84 1019.15 1019.46 1019.79 1020.14 1020.51 1020.89 1021.28 1021.67 1022.05 1022.43 1022.80 1023.14 1023.44 1023.70 1023.88 1023.99
1019.81 1019.69 1019.50 1019.27 1018.96 1018.56 1018.05 1017.45 1016.76 1016.01 1015.24 1014.50 1013.82 1013.23 1012.75 1012.38 1012.13 1012.01 1011.99 1012.10 1012.32 1012.66 1013.11 1013.65 1014.28 1014.94 1015.61 1016.24 1016.81 1017.30 1017.71 1018.04 1018.31 1018.54 1018.77 1019.03 1019.31 1019.64 1020.02 1020.43 1020.86 1021.29 1021.72 1022.13 1022.50 1022.83 1023.10 1023.29 1023.39
1019.65 1019.61 1019.54 1019.42 1019.21 1018.89 1018.43 1017.84 1017.13 1016.36 1015.56 1014.80 1014.12 1013.55 1013.09 1012.75 1012.51 1012.36 1012.29 1012.30 1012.40 1012.60 1012.91 1013.33 1013.86 1014.47 1015.11 1015.75 1016.34 1016.85 1017.25 1017.56 1017.77 1017.93 1018.08 1018.24 1018.46 1018.73 1019.08 1019.48 1019.92 1020.37 1020.83 1021.25 1021.64 1021.97 1022.24 1022.44 1022.56
1019.35 1019.42 1019.49 1019.50 1019.41 1019.16 1018.74 1018.16 1017.44 1016.63 1015.82 1015.07 1014.42 1013.89 1013.49 1013.21 1013.01 1012.87 1012.76 1012.69 1012.67 1012.73 1012.89 1013.18 1013.59 1014.12 1014.71 1015.32 1015.90 1016.39 1016.78 1017.04 1017.20 1017.29 1017.34 1017.42 1017.54 1017.75 1018.04 1018.41 1018.82 1019.26 1019.71 1020.12 1020.50 1020.82 1021.09 1021.30 1021.45
1019.01 1019.22 1019.44 1019.58 1019.59 1019.40 1019.01 1018.41 1017.66 1016.82 1016.00 1015.25 1014.63 1014.17 1013.86 1013.66 1013.53 1013.43 1013.32 1013.20 1013.09 1013.02 1013.04 1013.18 1013.46 1013.87 1014.38 1014.93 1015.46 1015.92 1016.26 1016.47 1016.57 1016.57 1016.54 1016.52 1016.56 1016.69 1016.90 1017.21 1017.57 1017.97 1018.37 1018.75 1019.10 1019.40 1019.67 1019.90 1020.09
1018.76 1019.12 1019.47 1019.73 1019.82 1019.67 1019.26 1018.63 1017.82 1016.94 1016.08 1015.33 1014.75 1014.36 1014.14 1014.04 1014.00 1013.96 1013.88 1013.74 1013.56 1013.40 1013.29 1013.29 1013.43 1013.71 1014.11 1014.56 1015.02 1015.41 1015.69 1015.84 1015.86 1015.79 1015.67 1015.57 1015.52 1015.56 1015.70 1015.93 1016.22 1016.55 1016.89 1017.21 1017.51 1017.79 1018.05 1018.30 1018.54
1018.69 1019.18 1019.66 1020.01 1020.14 1019.99 1019.55 1018.85 1017.97 1017.01 1016.10 1015.34 1014.78 1014.45 1014.31 1014.32 1014.37 1014.41 1014.37 1014.24 1014.03 1013.79 1013.58 1013.45 1013.46 1013.60 1013.87 1014.21 1014.57 1014.87 1015.07 1015.15 1015.10 1014.95 1014.77 1014.59 1014.46 1014.42 1014.48 1014.62 1014.83 1015.08 1015.34 1015.60 1015.85 1016.09 1016.33 1016.60 1016.88
1018.82 1019.43 1020.00 1020.40 1020.55 1020.38 1019.87 1019.09 1018.12 1017.08 1016.11 1015.32 1014.77 1014.48 1014.41 1014.50 1014.65 1014.76 1014.78 1014.67 1014.45 1014.16 1013.86 1013.63 1013.51 1013.53 1013.66 1013.88 1014.12 1014.32 1014.44 1014.44 1014.32 1014.12 1013.87 1013.63 1013.44 1013.33 1013.31 1013.37 1013.50 1013.66 1013.84 1014.02 1014.20 1014.40 1014.62 1014.88 1015.19
1019.13 1019.82 1020.44 1020.86 1020.99 1020.77 1020.20 1019.33 1018.28 1017.16 1016.14 1015.32 1014.77 1014.50 1014.48 1014.63 1014.84 1015.01 1015.08 1015.00 1014.78 1014.46 1014.10 1013.79 1013.57 1013.46 1013.48 1013.57 1013.70 1013.80 1013.83 1013.76 1013.59 1013.33 1013.04 1012.74 1012.50 1012.33 1012.24 1012.23 1012.27 1012.35 1012.44 1012.54 1012.65 1012.80 1012.98 1013.23 1013.54
1019.51 1020.24 1020.88 1021.29 1021.38 1021.11 1020.47 1019.54 1018.42 1017.26 1016.21 1015.37 1014.82 1014.57 1014.57 1014.74 1014.99 1015.20 1015.29 1015.23 1015.01 1014.67 1014.28 1013.91 1013.61 1013.41 1013.32 1013.31 1013.34 1013.35 1013.30 1013.16 1012.93 1012.63 1012.30 1011.97 1011.68 1011.46 1011.31 1011.22 1011.18 1011.18 1011.19 1011.21 1011.24 1011.32 1011.45 1011.66 1011.95
1019.87 1020.59 1021.19 1021.55 1021.59 1021.27 1020.59 1019.63 1018.50 1017.34 1016.29 1015.47 1014.93 1014.68 1014.69 1014.87 1015.12 1015.33 1015.43 1015.37 1015.15 1014.81 1014.40 1013.99 1013.64 1013.38 1013.21 1013.11 1013.05 1012.98 1012.86 1012.66 1012.39 1012.05 1011.68 1011.32 1010.99 1010.72 1010.50 1010.35 1010.24 1010.15 1010.07 1010.00 1009.96 1009.97 1010.03 1010.18 1010.42
1020.07 1020.73 1021.26 1021.55 1021.53 1021.17 1020.49 1019.55 1018.46 1017.36 1016.37 1015.59 1015.08 1014.85 1014.86 1015.02 1015.25 1015.43 1015.51 1015.44 1015.22 1014.88 1014.47 1014.05 1013.67 1013.37 1013.14 1012.98 1012.85 1012.71 1012.52 1012.26 1011.94 1011.56 1011.16 1010.76 1010.39 1010.07 1009.80 1009.58 1009.38 1009.21 1009.05 1008.90 1008.78 1008.70 1008.69 1008.77 1008.94
1020.08 1020.63 1021.05 1021.24 1021.16 1020.78 1020.12 1019.25 1018.25 1017.26 1016.37 1015.69 1015.24 1015.04 1015.04 1015.18 1015.36 1015.51 1015.55 1015.46 1015.23 1014.89 1014.49 1014.07 1013.69 1013.37 1013.11 1012.90 1012.71 1012.50 1012.24 1011.93 1011.55 1011.13 1010.69 1010.25 1009.84 1009.47 1009.14 1008.85 1008.58 1008.33 1008.09 1007.85 1007.65 1007.49 1007.41 1007.41 1007.51
Thickness
5744 5744 5742 5731 5708 5687 5688 5702 5711 5712 5716 5723 5726 5723 5718 5715 5709 5707 5713 5713 5711 5705 5700 5696 5691 5687 5683 5680 5677 5675 5672 5670 5668 5666 5665 5663 5662 5661 5660 5659 5658 5657 5657 5657 5656 5656 5656 5656 5657
5745 5744 5734 5718 5693 5679 5687 5705 5708 5717 5723 5725 5726 5723 5717 5716 5718 5713 5710 5711 5709 5705 5700 5696 5691 5687 5683 5679 5676 5673 5670 5668 5666 5664 5662 5660 5659 5657 5656 5654 5653 5652 5651 5651 5650 5650 5650 5650 5650
5747 5743 5723 5705 5691 5683 5698 5710 5712 5721 5724 5725 5723 5724 5721 5721 5718 5714 5716 5713 5708 5703 5699 5695 5691 5686 5682 5679 5675 5672 5669 5666 5664 5661 5659 5657 5656 5654 5652 5650 5648 5647 5646 5645 5645 5644 5644 5644 5644
5743 5730 5716 5699 5695 5701 5710 5718 5716 5715 5720 5724 5722 5719 5723 5728 5725 5722 5719 5713 5707 5703 5699 5695 5691 5686 5682 5678 5675 5671 5668 5665 5662 5660 5657 5655 5653 5650 5648 5646 5644 5643 5641 5640 5639 5639 5638 5638 5638
5737 5719 5704 5692 5697 5710 5721 5725 5719 5715 5717 5721 5720 5717 5719 5726 5727 5724 5719 5713 5708 5703 5698 5694 5690 5686 5682 5678 5674 5671 5667 5664 5661 5658 5655 5653 5650 5647 5645 5642 5640 5639 5637 5636 5634 5634 5633 5632 5632
5722 5709 5690 5685 5696 5712 5723 5727 5719 5717 5718 5720 5718 5716 5721 5722 5721 5721 5718 5712 5707 5703 5698 5693 5690 5685 5681 5678 5674 5670 5666 5663 5660 5657 5654 5651 5648 5645 5642 5639 5637 5635 5633 5632 5630 5629 5628 5627 5626
5715 5702 5693 5695 5696 5705 5722 5728 5722 5721 5720 5720 5722 5716 5719 5718 5718 5717 5713 5708 5703 5699 5695 5692 5689 5685 5681 5677 5673 5669 5666 5662 5659 5655 5652 5649 5646 5643 5640 5637 5634 5632 5630 5628 5626 5624 5623 5622 5621
5721 5704 5700 5695 5698 5705 5722 5728 5729 5726 5725 5730 5725 5717 5718 5720 5715 5711 5707 5702 5698 5695 5693 5690 5688 5684 5681 5677 5672 5669 5665 5661 5658 5654 5650 5647 5644 5641 5638 5635 5632 5629 5627 5624 5622 5620 5618 5617 5615
5724 5697 5689 5697 5703 5710 5723 5724 5728 5731 5728 5729 5728 5726 5728 5722 5713 5706 5701 5697 5694 5693 5691 5689 5686 5683 5679 5675 5671 5667 5664 5660 5656 5652 5648 5645 5642 5639 5636 5632 5629 5627 5624 5621 5618 5616 5614 5612 5611
5712 5691 5698 5711 5716 5718 5721 5721 5724 5723 5720 5722 5725 5722 5718 5716 5712 5708 5704 5700 5696 5694 5691 5689 5686 5682 5678 5674 5670 5666 5662 5658 5655 5651 5647 5643 5639 5636 5632 5629 5626 5624 5621 5618 5615 5613 5611 5608 5606
5713 5702 5710 5718 5723 5723 5720 5721 5724 5719 5713 5718 5722 5722 5711 5710 5708 5708 5708 5707 5705 5699 5692 5689 5685 5681 5677 5672 5668 5664 5660 5656 5653 5649 5645 5640 5636 5632 5629 5626 5624 5621 5618 5615 5612 5610 5607 5604 5602
5714 5714 5718 5721 5726 5723 5721 5721 5719 5718 5723 5732 5730 5725 5713 5708 5708 5709 5708 5707 5703 5697 5693 5689 5684 5679 5675 5671 5666 5662 5657 5653 5650 5646 5642 5637 5633 5629 5626 5623 5620 5618 5615 5611 5608 5605 5602 5600 5597
5712 5714 5720 5721 5720 5721 5720 5717 5716 5720 5732 5731 5729 5723 5715 5713 5712 5713 5712 5708 5702 5698 5694 5689 5684 5679 5674 5668 5664 5659 5655 5651 5647 5643 5639 5635 5630 5626 5622 5619 5616 5613 5610 5607 5603 5600 5597 5595 5592
5714 5713 5712 5716 5719 5720 5718 5715 5713 5725 5733 5730 5728 5724 5720 5718 5717 5711 5707 5705 5702 5700 5695 5689 5684 5679 5673 5667 5662 5659 5653 5649 5644 5640 5637 5633 5628 5623 5619 5615 5612 5609 5606 5603 5599 5596 5592 5589 5586
5710 5705 5705 5713 5717 5718 5716 5707 5711 5727 5727 5724 5725 5725 5723 5722 5719 5715 5715 5712 5708 5703 5697 5690 5684 5678 5672 5667 5661 5656 5651 5646 5642 5638 5633 5629 5625 5620 5616 5611 5608 5604 5601 5598 5593 5590 5586 5583 5580
5700 5692 5688 5704 5712 5712 5708 5696 5715 5723 5719 5718 5721 5722 5722 5723 5721 5721 5718 5714 5709 5702 5695 5689 5683 5676 5671 5666 5660 5655 5649 5644 5639 5634 5630 5625 5621 5616 5611 5608 5604 5600 5596 5592 5587 5583 5579 5576 5574
5682 5675 5679 5691 5705 5704 5700 5696 5714 5718 5714 5712 5713 5716 5719 5720 5721 5719 5717 5713 5708 5702 5694 5687 5681 5675 5668 5662 5657 5651 5646 5641 5637 5631 5627 5622 5617 5612 5607 5604 5600 5595 5590 5586 5582 5577 5573 5570 5566
5673 5673 5674 5677 5693 5695 5689 5689 5708 5713 5711 5706 5706 5708 5712 5714 5717 5719 5717 5712 5705 5698 5691 5684 5677 5672 5664 5656 5649 5644 5640 5637 5633 5629 5624 5619 5613 5608 5603 5599 5594 5589 5584 5579 5575 5571 5566 5563 5558
5676 5673 5668 5674 5687 5688 5684 5685 5697 5704 5704 5700 5699 5701 5703 5707 5712 5715 5714 5709 5700 5692 5686 5680 5674 5667 5659 5650 5644 5639 5637 5633 5628 5625 5620 5615 5609 5603 5598 5594 5589 5582 5578 5574 5569 5563 5558 5553 5545
5674 5669 5666 5673 5681 5680 5677 5678 5690 5697 5696 5695 5694 5695 5696 5699 5703 5705 5704 5700 5694 5688 5682 5676 5670 5664 5658 5652 5645 5638 5633 5628 5625 5620 5615 5610 5604 5599 5593 5588 5584 5577 5571 5566 5561 5554 5548 5544 5535
5669 5665 5665 5666 5668 5672 5670 5672 5682 5689 5690 5690 5689 5689 5690 5690 5690 5692 5692 5690 5685 5680 5675 5672 5666 5660 5654 5647 5638 5630 5623 5620 5616 5612 5609 5606 5600 5595 5590 5585 5579 5572 5566 5562 5556 5548 5540 5535 5528
5659 5670 5668 5666 5657 5649 5654 5645 5664 5678 5680 5681 5680 5679 5679 5680 5681 5681 5682 5681 5677 5673 5669 5664 5658 5653 5646 5639 5632 5625 5620 5618 5616 5611 5607 5602 5596 5591 5585 5580 5574 5568 5562 5557 5551 5543 5536 5527 5522
5665 5669 5664 5662 5654 5644 5646 5640 5651 5667 5669 5673 5674 5673 5673 5671 5671 5670 5670 5669 5668 5664 5659 5654 5649 5644 5638 5631 5626 5620 5617 5615 5611 5604 5599 5595 5590 5585 5581 5575 5568 5563 5557 5552 5545 5538 5530 5523 5518
5667 5659 5654 5644 5637 5636 5647 5637 5646 5655 5667 5668 5669 5667 5665 5663 5661 5660 5659 5659 5657 5653 5649 5645 5640 5635 5629 5623 5617 5612 5609 5605 5600 5595 5591 5588 5584 5579 5575 5568 5563 5558 5552 5547 5540 5532 5525 5520 5514
5657 5641 5631 5634 5626 5633 5644 5641 5646 5665 5670 5667 5663 5660 5657 5655 5651 5650 5649 5647 5646 5643 5639 5634 5630 5625 5620 5614 5609 5605 5601 5597 5593 5590 5585 5581 5577 5573 5569 5561 5557 5552 5547 5541 5534 5527 5521 5514 5508
5651 5640 5625 5622 5617 5621 5634 5635 5651 5664 5667 5663 5657 5652 5650 5647 5643 5642 5640 5637 5634 5633 5629 5624 5620 5616 5612 5606 5602 5598 5593 5588 5585 5582 5578 5574 5572 5569 5563 5557 5552 5547 5541 5535 5528 5521 5516 5509 5503
5647 5636 5633 5617 5615 5612 5620 5632 5648 5658 5654 5650 5646 5643 5640 5638 5636 5633 5630 5628 5625 5622 5619 5615 5611 5607 5603 5598 5593 5589 5584 5580 5577 5574 5570 5566 5563 5560 5555 5549 5545 5540 5534 5528 5521 5516 5511 5504 5499
5645 5633 5618 5613 5606 5601 5610 5620 5631 5645 5643 5641 5637 5633 5632 5631 5627 5625 5621 5617 5614 5611 5608 5605 5601 5597 5593 5589 5584 5580 5576 5571 5567 5563 5559 5556 5553 5549 5544 5540 5535 5530 5525 5519 5513 5509 5504 5497 5493
5632 5629 5620 5606 5599 5592 5593 5615 5639 5642 5639 5634 5630 5627 5624 5621 5617 5614 5610 5606 5603 5599 5596 5593 5589 5586 5582 5578 5574 5569 5565 5561 5556 5551 5548 5545 5542 5537 5533 5528 5524 5519 5515 5509 5504 5501 5495 5490 5486
5632 5627 5615 5605 5601 5592 5585 5610 5641 5637 5634 5629 5624 5621 5617 5612 5608 5603 5599 5595 5591 5588 5585 5581 5577 5573 5570 5566 5562 5557 5552 5548 5543 5539 5536 5533 5529 5525 5520 5516 5512 5508 5504 5498 5493 5491 5486 5481 5477